Westfield, MA

2:39 PM EST on December 18, 2017 (GMT -0500)
Barnes Municipal

Weather History for KBAF - February, 2012

Change the Weather History Date:

Thursday, February 16, 2012

  Actual Average Record
Temperature  
Mean Temperature 32 °F -  
Max Temperature 41 °F 34 °F 57 °F (2006)
Min Temperature 23 °F 17 °F -5 °F (2015)
Degree Days  
Heating Degree Days 33    
Moisture  
Dew Point 29 °F    
Average Humidity 85    
Maximum Humidity 100    
Minimum Humidity 58    
Precipitation  
Precipitation 0.18 in - - ()
Sea Level Pressure  
Sea Level Pressure 30.15 in    
Wind  
Wind Speed 2 mph (South)    
Max Wind Speed 9 mph    
Max Gust Speed -    
Visibility 5 miles    
Events Rain , Snow    
Averages and records for this station are not official NWS values.
T = Trace of Precipitation, MM = Missing Value Source: NWS Daily Summary

Daily Weather History Graph

Daily Weather History Graph

Search for Another Location

Airport or City:

Trip Planner

Search our weather history database for the weather conditions in past years. The results will help you decide how hot, cold, wet, or windy it might be!

Date:

Astronomy

Feb. 16, 2012 Rise Set
Actual Time 6:46 AM EST 5:24 PM EST
Civil Twilight 6:17 AM EST 5:52 PM EST
Nautical Twilight 5:44 AM EST 6:25 PM EST
Astronomical Twilight 5:12 AM EST 6:58 PM EST
Moon 2:43 AM EST (2/16) 12:09 PM EST (2/16)
Length of Visible Light 11h 35m
Length of Day
10h 37m
Waning Crescent, 28% of the Moon is Illuminated
Feb 16
Waning Crescent
Feb 21
New
Feb 29
First Quarter
Mar 8
Full
Mar 14
Last Quarter

Hourly Weather History & Observations

Time (EST) Temp. Windchill Dew Point Humidity Pressure Visibility Wind Dir Wind Speed Gust Speed Precip Events Conditions
12:53 AM 30.0 °F - 24.1 °F 79% 30.27 in 10.0 mi Calm Calm - N/A   Clear
1:53 AM 28.9 °F - 23.0 °F 78% 30.28 in 10.0 mi Calm Calm - N/A   Clear
2:53 AM 26.1 °F - 21.9 °F 84% 30.28 in 10.0 mi Calm Calm - N/A   Clear
3:53 AM 25.0 °F - 21.0 °F 85% 30.28 in 10.0 mi Calm Calm - N/A   Clear
4:53 AM 24.1 °F - 21.0 °F 88% 30.29 in 8.0 mi Calm Calm - N/A   Clear
5:53 AM 24.1 °F - 19.9 °F 84% 30.28 in 10.0 mi Calm Calm - N/A   Clear
6:53 AM 23.0 °F - 19.9 °F 88% 30.30 in 9.0 mi Calm Calm - N/A   Clear
7:53 AM 27.0 °F - 23.0 °F 85% 30.30 in 9.0 mi Calm Calm - N/A   Clear
8:53 AM 32.0 °F - 27.0 °F 82% 30.30 in 9.0 mi Calm Calm - N/A   Clear
9:53 AM 36.0 °F - 27.0 °F 70% 30.28 in 10.0 mi Calm Calm - N/A   Scattered Clouds
10:53 AM 39.0 °F 36.8 °F 27.0 °F 62% 30.26 in 10.0 mi WSW 3.5 mph - N/A   Mostly Cloudy
11:53 AM 39.9 °F 36.7 °F 26.1 °F 58% 30.23 in 10.0 mi SSE 4.6 mph - N/A   Mostly Cloudy
12:53 PM 39.9 °F 35.1 °F 26.1 °F 58% 30.20 in 10.0 mi South 6.9 mph - N/A   Overcast
1:53 PM 41.0 °F 35.2 °F 28.0 °F 60% 30.18 in 10.0 mi South 9.2 mph - 0.00 in   Overcast
2:53 PM 39.0 °F 32.8 °F 28.9 °F 67% 30.17 in 10.0 mi South 9.2 mph - 0.00 in Rain Light Rain
3:28 PM 37.4 °F 32.1 °F 32.0 °F 81% 30.14 in 7.0 mi South 6.9 mph - 0.01 in Rain Light Rain
3:53 PM 35.1 °F 31.0 °F 32.0 °F 89% 30.16 in 4.0 mi South 4.6 mph - 0.03 in Snow Light Snow
4:09 PM 33.8 °F 30.8 °F 32.0 °F 93% 30.13 in 2.0 mi South 3.5 mph - 0.02 in Snow Light Snow
4:27 PM 33.8 °F - 32.0 °F 93% 30.12 in 1.2 mi Calm Calm - 0.03 in Snow Light Snow
4:42 PM 33.8 °F - 30.2 °F 87% 30.12 in 1.0 mi Calm Calm - 0.04 in Snow Light Snow
4:53 PM 33.1 °F - 30.9 °F 92% 30.14 in 1.0 mi Calm Calm - 0.04 in Snow Light Snow
5:00 PM 33.8 °F - 30.2 °F 87% 30.12 in 0.8 mi Calm Calm - 0.01 in Snow Light Snow
5:06 PM 33.8 °F - 30.2 °F 87% 30.12 in 1.0 mi Calm Calm - 0.01 in Snow Light Snow
5:17 PM 33.8 °F - 30.2 °F 87% 30.11 in 0.8 mi Calm Calm - 0.01 in Snow Light Snow
5:29 PM 33.8 °F - 30.2 °F 87% 30.11 in 1.2 mi Calm Calm - 0.02 in Snow Light Snow
5:36 PM 33.8 °F - 30.2 °F 87% 30.11 in 1.5 mi Calm Calm - 0.02 in Snow Light Snow
5:53 PM 33.1 °F - 30.9 °F 92% 30.13 in 1.8 mi Calm Calm - 0.03 in Snow Light Snow
6:40 PM 33.8 °F - 30.2 °F 87% 30.10 in 2.0 mi Calm Calm - 0.03 in Rain Light Rain
6:53 PM 33.1 °F - 30.9 °F 92% 30.12 in 2.0 mi Calm Calm - 0.04 in Rain Light Rain
7:18 PM 33.8 °F 30.8 °F 30.2 °F 87% 30.09 in 1.5 mi South 3.5 mph - 0.01 in Rain Light Rain
7:38 PM 33.8 °F 28.6 °F 30.2 °F 87% 30.09 in 2.5 mi South 5.8 mph - 0.01 in Rain Light Rain
7:48 PM 33.8 °F 28.6 °F 30.2 °F 87% 30.09 in 3.0 mi South 5.8 mph - 0.01 in Rain Light Rain
7:49 PM 33.1 °F 27.7 °F 30.9 °F 92% 30.11 in 3.0 mi South 5.8 mph - 0.01 in Rain Light Rain
8:00 PM 33.8 °F 29.6 °F 30.2 °F 87% 30.08 in 2.0 mi South 4.6 mph - 0.01 in Rain Light Rain
8:33 PM 33.8 °F 28.6 °F 32.0 °F 93% 30.08 in 2.0 mi South 5.8 mph - 0.01 in   Overcast
8:53 PM 34.0 °F 28.8 °F 32.0 °F 92% 30.09 in 2.0 mi South 5.8 mph - 0.01 in   Overcast
9:00 PM 33.8 °F 29.6 °F 32.0 °F 93% 30.07 in 3.0 mi South 4.6 mph - N/A   Overcast
9:38 PM 33.8 °F 28.6 °F 32.0 °F 93% 30.06 in 3.0 mi South 5.8 mph - 0.01 in Rain Light Rain
9:53 PM 34.0 °F 29.8 °F 32.0 °F 92% 30.07 in 2.5 mi SSW 4.6 mph - 0.01 in   Overcast
10:50 PM 33.8 °F 28.6 °F 32.0 °F 93% 30.04 in 1.8 mi South 5.8 mph - 0.01 in Rain Light Rain
10:53 PM 34.0 °F 28.8 °F 32.0 °F 92% 30.05 in 1.8 mi South 5.8 mph - 0.01 in Rain Light Rain
11:00 PM 33.8 °F 28.6 °F 33.8 °F 100% 30.03 in 2.5 mi South 5.8 mph - 0.00 in Rain Light Rain
11:53 PM 35.1 °F 30.1 °F 34.0 °F 96% 30.03 in 2.5 mi South 5.8 mph - 0.00 in   Overcast